SCP
0 0 0 0 0 0 0 0 1 1 1 1 2 2 3 3 3 3 3 4 5 8 10 12 12 11 9 7 5 5 5 6 6 6 6 6 6 6 7 6 6 5 6 6
0 0 0 0 0 1 1 1 1 1 1 1 2 2 3 2 3 3 3 5 7 10 12 13 13 11 9 7 6 5 5 6 6 6 6 7 7 7 7 7 6 6 6 6
0 0 0 1 1 1 1 1 1 1 1 1 2 2 3 3 3 4 5 7 9 11 13 13 12 10 8 8 7 6 6 6 6 6 7 7 7 8 8 8 7 7 6 6
0 0 1 1 1 1 1 1 1 1 1 1 2 3 3 4 4 5 7 9 11 12 12 11 10 9 8 7 6 6 6 6 5 5 6 7 8 8 9 9 9 8 7 6
0 0 1 1 1 1 1 1 1 1 2 2 2 3 4 5 6 7 8 10 12 12 10 9 8 7 6 6 5 5 6 6 5 5 5 6 7 8 9 10 10 8 6 5
0 0 1 1 1 1 1 1 1 2 2 2 2 3 5 6 6 7 9 10 11 10 8 7 6 6 6 7 7 7 7 7 7 6 6 6 6 7 9 10 9 6 5 5
0 0 1 1 1 1 2 2 2 2 2 2 3 4 5 6 6 7 8 9 9 8 7 6 6 6 7 8 9 9 8 8 7 6 6 7 7 8 9 9 6 5 7 8
0 1 1 1 1 2 2 2 3 3 3 3 4 4 5 6 6 6 7 7 7 6 6 6 6 7 8 8 8 9 9 8 7 6 5 6 8 9 9 7 6 6 8 9
1 1 1 1 1 2 2 3 3 3 4 4 4 4 5 6 6 5 5 5 5 5 5 5 6 6 6 5 5 6 7 6 6 5 6 7 8 9 8 7 7 7 7 7
1 1 1 1 1 2 2 2 3 3 3 3 3 3 4 5 5 5 5 5 4 3 3 4 5 5 5 5 5 5 5 5 5 5 6 8 8 6 6 7 7 6 6 5
2 2 1 1 1 1 2 2 2 3 2 2 2 2 3 4 4 4 4 4 3 3 3 3 4 5 6 6 6 6 5 5 4 4 5 5 5 4 4 4 4 4 4 4
2 2 2 1 1 1 1 1 1 2 2 2 2 2 3 4 4 4 3 3 3 3 3 3 3 4 5 6 7 7 7 5 3 3 3 3 3 2 2 2 2 1 2 2
1 1 1 1 1 1 1 1 1 1 1 2 2 3 3 3 3 3 3 3 3 3 3 2 2 3 4 5 5 7 7 5 3 2 2 3 2 2 2 1 1 1 1 1
1 1 1 1 1 1 1 1 1 1 1 2 2 2 2 2 2 2 2 2 2 3 2 2 2 3 4 4 4 5 5 4 3 2 2 2 3 3 2 2 2 2 1 1
1 1 1 1 1 1 1 1 1 1 1 1 1 1 1 1 1 2 2 2 2 2 2 2 2 3 4 4 4 4 4 3 3 3 3 3 3 4 4 3 3 3 3 2
1 1 1 1 1 1 1 1 1 1 1 1 1 1 1 1 2 2 2 2 2 2 3 3 3 3 4 4 4 4 4 3 3 3 4 4 5 5 5 4 4 4 4 3
1 1 1 1 1 1 1 1 1 1 1 1 1 1 1 1 2 2 3 3 3 3 3 3 3 3 4 4 5 4 4 3 3 4 5 5 5 5 5 5 5 5 4 4
1 1 1 1 1 1 1 1 1 1 2 2 2 1 1 1 2 3 3 4 4 4 4 4 4 4 4 4 4 5 4 4 4 4 4 4 4 4 5 5 4 4 4 3
0 1 1 1 1 1 1 1 1 1 2 2 2 1 1 1 2 3 4 4 4 5 5 6 6 5 5 5 5 5 5 4 4 4 4 4 3 4 4 4 3 3 2 2
0 0 1 1 1 1 1 1 1 2 2 2 2 1 1 2 2 3 4 4 4 4 4 6 7 7 7 6 6 6 5 4 4 5 4 4 4 4 3 2 2 1 1 1
0 0 1 1 1 1 1 1 2 2 2 2 2 2 2 2 2 3 3 3 3 3 3 4 5 6 5 5 6 6 5 5 5 5 5 4 3 3 2 2 2 1 1 1
1 0 0 1 1 1 1 1 2 2 1 1 2 2 2 2 2 2 2 2 2 2 2 2 2 2 2 3 4 4 4 4 4 4 3 3 2 2 1 2 2 2 2 2
1 1 0 1 1 1 1 1 1 1 1 1 1 1 2 1 1 1 1 1 1 1 1 1 1 1 0 1 1 1 2 2 2 2 1 1 1 1 1 1 2 2 2 2
1 1 1 1 1 1 1 1 1 1 1 1 1 1 1 1 1 1 1 0 0 0 0 0 0 0 0 0 0 0 1 1 1 1 0 0 0 0 0 1 1 2 2 2
1 1 1 1 1 1 1 1 1 1 1 1 1 1 1 1 1 0 0 0 0 0 0 0 0 0 0 0 0 0 0 0 0 0 0 0 0 0 0 0 1 1 2 2
1 1 1 1 1 1 1 1 1 1 1 1 1 1 1 0 0 0 0 0 0 0 0 0 0 0 0 0 0 0 0 0 0 0 0 0 0 0 0 0 1 1 1 1
1 1 1 1 1 1 1 0 0 0 1 1 1 1 0 0 0 0 0 0 0 0 0 0 0 0 0 0 0 0 0 0 0 0 1 1 1 1 0 0 1 1 1 2
Wind_Speed
9 6 7 8 9 10 11 11 12 9 8 4 2 3 2 3 3 3 3 3 3 3 3 2 2 2 2 2 2 2 3 3 4 4 4 4 4 4 4 5 5 5 5 5
10 9 9 11 11 11 12 11 11 11 9 2 2 3 3 4 4 3 2 2 2 2 2 2 2 1 2 2 2 2 2 2 3 3 4 4 4 4 4 4 5 4 5 5
11 9 10 14 12 12 11 10 11 11 6 2 3 3 3 4 4 3 2 1 1 1 1 1 1 1 1 1 1 2 2 2 2 3 4 4 4 4 4 4 4 4 5 5
9 8 14 5 1 6 9 9 8 7 4 4 3 2 2 2 2 2 1 1 1 1 1 1 1 1 1 2 2 1 2 2 2 3 3 3 4 4 4 4 4 4 4 4
9 12 12 7 4 5 8 9 7 7 5 4 3 3 3 2 1 0 0 0 0 1 1 0 0 1 1 1 1 1 1 2 2 3 3 4 4 4 4 3 4 4 4 4
10 12 12 3 3 1 6 9 3 4 4 5 6 6 2 3 1 1 1 1 1 1 1 1 0 1 1 1 1 1 1 2 2 2 3 4 3 3 3 4 4 4 4 4
13 13 8 3 3 3 8 2 2 2 4 5 4 2 3 2 2 1 1 1 1 1 1 1 1 1 1 1 1 1 1 1 2 2 3 3 3 3 3 4 4 4 4 4
10 12 7 4 2 4 4 4 0 1 2 2 1 2 3 3 2 2 1 1 1 1 1 1 1 0 0 1 2 2 1 2 2 2 3 2 2 2 3 3 4 4 4 4
5 3 3 1 2 2 3 2 1 1 1 2 2 2 2 2 2 1 1 1 1 1 1 1 1 1 1 1 2 2 2 2 2 2 2 2 3 3 3 3 4 3 3 3
5 3 2 2 2 2 2 2 2 1 2 2 2 2 2 2 1 1 0 1 1 0 0 0 1 1 1 1 1 2 3 2 2 2 2 1 2 3 3 3 3 4 4 3
7 4 3 2 2 2 2 2 1 1 2 2 2 2 2 2 2 1 1 1 1 1 1 1 1 1 1 1 1 2 3 3 2 2 2 1 1 1 2 2 2 3 4 3
5 3 4 4 2 3 2 2 1 1 1 1 1 1 1 1 1 1 1 1 2 2 2 2 2 2 1 1 1 2 2 3 2 2 1 1 1 0 2 1 1 1 3 4
6 5 5 4 4 3 3 2 2 2 2 2 1 1 1 1 1 1 2 2 2 2 2 2 2 2 1 2 2 2 3 3 3 2 2 2 2 2 1 1 2 1 0 1
5 5 5 4 3 3 3 3 2 2 2 2 1 1 1 1 1 2 3 2 2 2 2 2 2 2 2 2 2 3 3 2 3 2 2 2 2 2 2 1 1 0 1 1
5 5 5 3 3 3 3 3 3 3 2 1 1 1 1 1 2 2 2 3 2 3 3 2 3 3 2 2 2 3 3 2 3 3 2 2 2 2 2 2 1 1 1 1
4 4 4 3 3 3 3 4 3 3 2 2 2 2 2 2 2 2 2 2 3 3 3 3 3 2 2 3 3 2 2 1 3 3 2 2 1 2 2 1 1 1 1 0
4 3 3 4 4 4 4 4 3 3 3 2 2 2 2 2 2 2 3 2 2 3 3 3 2 2 2 2 3 2 2 1 2 3 2 2 2 2 2 1 1 1 0 2
4 4 4 4 4 4 4 3 3 3 3 2 2 2 3 3 3 3 2 2 2 2 2 2 2 2 2 1 2 2 2 1 2 2 1 1 1 1 1 1 1 1 1 2
1 2 2 3 3 3 3 3 3 2 2 2 2 2 2 3 3 3 2 2 2 3 2 1 1 2 2 1 2 2 2 2 2 1 1 1 1 1 1 1 1 1 1 0
0 1 1 2 2 2 2 2 2 2 2 2 2 2 2 2 2 2 2 3 2 2 1 1 2 2 1 0 2 2 1 1 1 1 1 1 1 1 1 1 0 0 1 1
2 2 1 1 1 1 1 1 1 1 1 1 2 2 2 2 2 2 3 3 1 1 2 2 2 2 1 1 3 2 1 1 1 1 1 1 0 0 0 0 0 0 1 1
2 2 2 1 1 1 1 0 0 1 1 1 1 2 2 2 3 3 3 2 1 0 2 2 2 1 1 3 3 2 2 2 2 1 1 1 1 1 0 0 0 0 0 0
3 2 2 2 1 1 1 0 1 1 1 1 2 2 3 2 2 2 2 1 1 1 2 1 3 3 1 4 2 1 1 1 1 1 1 1 1 1 1 1 0 0 0 0
3 3 2 2 2 1 1 1 1 1 2 2 3 3 3 2 2 2 1 1 1 1 1 2 3 1 3 3 2 1 1 1 1 1 1 1 1 1 1 1 0 0 0 0
2 2 2 2 2 2 1 1 2 2 3 2 1 1 2 2 2 1 1 0 1 1 1 2 4 3 3 1 1 1 1 1 1 1 1 1 1 1 1 1 1 1 1 1
3 2 1 2 2 2 2 2 2 1 1 1 1 1 1 1 1 1 1 2 2 2 2 1 2 3 2 1 1 1 1 0 1 1 1 1 0 1 0 0 0 0 0 0
2 2 2 2 2 2 2 2 2 1 1 1 1 1 1 1 1 1 1 1 2 2 1 1 1 1 1 1 0 0 0 0 0 0 0 0 0 0 1 1 1 1 1 1
Wind_Direction
261 266 245 238 230 227 241 261 271 273 270 258 214 215 185 158 145 138 127 129 132 132 125 133 137 150 168 169 163 176 194 205 210 222 224 224 228 232 235 238 239 240 241 241
241 239 241 245 240 237 242 250 258 265 266 281 216 203 192 187 175 167 155 140 133 141 145 150 158 172 172 180 174 193 210 212 212 221 225 228 230 234 235 237 244 241 239 239
243 232 240 239 235 237 241 245 251 258 265 199 206 203 209 206 199 194 183 166 163 163 160 165 178 183 175 182 196 212 225 227 221 226 228 233 237 233 236 238 238 242 243 245
246 230 240 248 242 248 251 249 252 261 247 212 194 191 219 217 207 194 185 181 174 178 170 175 178 171 183 179 184 216 238 240 242 244 241 239 238 237 238 237 240 244 246 249
241 240 245 226 208 232 248 253 245 241 225 199 160 180 196 174 154 149 102 102 125 181 168 119 156 174 183 194 195 221 256 272 265 255 248 242 241 243 242 243 247 248 248 245
239 250 250 242 125 243 257 245 203 214 200 185 192 222 169 117 98 55 38 61 71 97 86 86 92 186 199 221 225 251 272 280 285 272 256 249 247 247 244 244 249 255 253 253
240 246 252 63 102 196 236 301 88 204 198 202 225 329 84 115 100 88 74 82 90 85 69 46 20 168 207 271 272 285 294 285 276 277 266 260 256 254 254 253 258 266 267 264
237 243 238 81 176 239 346 9 313 216 202 198 123 95 126 135 131 130 123 129 115 91 61 41 23 167 253 317 322 309 285 271 268 267 266 250 249 255 258 258 250 252 254 262
260 282 39 305 297 333 316 294 267 220 174 176 171 162 151 146 146 137 140 138 128 112 83 63 7 268 273 323 325 314 298 285 283 272 266 259 243 237 240 245 258 262 260 257
255 237 280 270 301 316 302 284 271 231 198 196 190 178 170 164 157 162 135 151 135 140 281 317 304 277 284 302 316 317 305 298 285 271 261 264 272 259 259 261 266 269 271 270
244 251 264 239 292 311 307 283 237 203 205 209 201 191 181 175 178 182 211 190 209 223 242 266 289 276 270 279 310 305 294 294 292 287 296 283 283 317 293 307 320 296 292 287
261 267 269 270 281 285 274 268 230 213 212 217 219 196 199 207 213 229 254 232 233 240 251 259 262 262 259 254 231 260 267 279 285 287 300 298 300 174 65 10 75 27 331 313
280 288 287 286 280 276 261 244 226 227 228 227 224 210 214 217 229 251 264 249 250 254 260 265 262 269 264 263 251 257 277 290 291 292 287 285 283 289 290 125 136 127 347 334
266 262 255 251 258 260 252 232 210 212 219 212 199 200 213 223 241 263 273 272 268 265 264 264 268 280 282 267 258 265 274 271 279 286 287 284 282 288 289 289 277 272 131 130
253 251 257 266 260 250 240 218 201 204 201 203 200 218 235 249 265 285 301 299 277 267 264 261 262 275 277 264 253 256 270 276 272 277 273 273 283 286 281 275 290 318 2 102
264 251 251 250 245 242 231 218 215 216 216 219 227 238 250 257 263 282 299 299 278 278 276 265 265 278 276 267 262 250 247 265 280 274 267 263 266 279 285 276 255 250 242 92
262 252 248 251 250 247 239 234 235 232 227 231 242 247 249 252 258 265 272 273 269 271 268 268 274 276 265 259 261 263 264 205 210 254 263 272 268 268 283 293 283 269 268 93
269 272 272 268 261 252 244 239 234 226 225 224 230 242 248 253 263 269 270 273 267 267 263 258 273 271 255 251 264 277 267 253 241 250 255 272 289 285 289 288 286 300 350 115
268 262 272 271 263 252 244 238 231 229 227 219 220 229 246 261 269 264 257 257 259 255 263 269 244 255 247 240 270 239 255 261 244 236 252 192 228 258 295 312 317 332 349 56
334 277 274 279 270 258 250 231 214 211 215 221 224 230 242 255 261 258 248 252 268 303 336 332 250 257 272 267 278 258 249 263 281 281 266 266 278 306 311 307 312 346 11 22
17 8 347 328 330 309 268 222 199 200 219 225 230 242 248 255 257 256 252 252 242 274 265 205 234 254 274 322 249 252 235 228 231 242 238 225 246 301 321 336 22 32 56 39
359 350 345 346 344 20 31 330 217 225 243 265 274 268 259 255 252 248 249 279 283 269 258 248 243 58 347 283 252 239 223 226 228 227 224 226 223 227 236 307 14 71 64 48
351 348 344 343 347 356 3 296 249 242 251 270 276 274 276 293 291 276 261 263 281 85 270 307 52 90 261 252 252 245 240 242 249 249 239 229 224 217 206 210 219 121 78 48
341 345 339 331 320 299 291 302 295 275 268 267 271 279 280 269 257 259 280 120 122 136 272 61 97 140 238 250 261 266 280 291 283 280 260 225 207 206 211 213 190 156 183 267
326 325 318 298 279 276 272 259 256 256 256 261 276 277 265 263 272 283 294 244 120 195 239 136 154 186 226 261 270 288 298 349 338 312 277 251 250 234 216 211 203 216 210 208
292 294 309 288 301 301 291 275 267 266 269 281 294 288 268 251 239 220 222 222 223 221 247 241 180 185 218 239 243 271 291 150 182 227 263 290 285 271 251 185 173 223 159 114
269 259 245 248 259 279 292 288 285 284 276 269 274 280 287 291 268 243 242 246 242 235 234 239 242 227 220 226 220 145 144 85 27 325 59 94 108 167 157 176 201 171 157 127